Погода в Ейском Укреплении

Россия / Краснодарский край     46°42′28″N   38°36′52″E
темп.,
°C
ветер,
м/с
пор.,
м/с
влажн.,
%
обл.,
%
осадки,
мм/ч
давл.,
гПа
погр.,
м
6 марта, сб
сб600:00+5ююз51287100 0.0 1014345
03:00+4юз51090100 0.0 1014230
06:00+4юз499549 0.0 1013184
09:00+5зюз598667 0.0 1013311
12:00+6з358198 0.0 1013319
15:00+3с699299 0.0 1013267
18:000с81295100 0.5 1015604
21:00+1ссз61174100 0.7 1019840
7 марта, вс
вс700:00−1ссз6116645 0.0 1022545
03:00−2сз486823 0.0 1025501
06:00−2з34670 0.0 1026294
09:00−1зюз46560 0.0 1026469
12:00+1з69520 0.0 10241083
15:00+2зюз810590 0.0 10231012
18:00+1юз712650 0.0 1020637
21:00+1зюз714700 0.0 1020478
8 марта, пн
пн800:00+1зюз714730 0.0 1019465
03:000зюз613760 0.0 1018457
06:00+1юз6147722 0.0 1017442
09:00+3зюз8137118 0.0 1016785
12:00+4зюз9126750 0.0 10151066
15:00+5зюз9136461 0.1 10141006
18:00+4юз713690 0.0 1013630
21:00+3юз6127723 0.0 1014448
9 марта, вт
вт900:00+3зюз61190100 0.1 1014486
03:00+1ссз1296100 0.2 101439
06:00+1з1195100 0.0 101326
09:00+1зсз5893100 0.1 1015482
12:00+1зсз4585100 0.0 1016482
15:00+1ссз457597 0.1 1017617
18:00+1сз466837 0.1 1018822
21:00−1сз356618 0.1 1020160
10 марта, ср
ср1000:00−1з22600 0.0 102143
03:00−1зсз115833 0.0 102122
06:00−1ссв236794 0.0 1022109
09:00−1св447896 0.0 1023393
12:00+1св446298 0.0 1023703
15:00+1св566599 0.0 1023698
18:000св576890 0.0 1022433
21:00−1всв487284 0.0 1023304